Flag for U.S.A. Weather past 2 weeks in Canton, Ohio, U.S.A.

67 °F

Partly sunny.

Feels Like: 67 °F
Forecast: 52 / 75 °F
Wind: No wind

Location: Akron-Canton Regional Airport

Current Time: Oct 6, 2015 at 11:30:22 AM

Latest Report: Oct 6, 2015 at 10:51 AM

Visibility: 10 mi

Pressure: 30.12 "Hg

Humidity: 68%

Dew point: 56 °F

Location of CantonLocation

Historic Weather in Canton — Graph


Canton temperature yesterday

Maximum temperature yesterday: 73 °F (at 2:51 PM)
Minimum temperature yesterday: 50 °F (at 4:51 AM)
Average temperature yesterday: 60 °F

Past Weeks' High & Low Weather Summary

High80 °F (Sep 24, 2:51 PM)93% (Sep 28, 7:51 AM)30.33 "Hg (Sep 28, 7:51 AM)
Low43 °F (Oct 3, 5:51 AM)28% (Sep 24, 2:51 PM)29.87 "Hg (Sep 29, 8:51 PM)
Average62 °F71%30.16 "Hg
* Reported Sep 21 9:51 AM — Oct 6 9:51 AM, Canton, Weather by CustomWeather, © 2015

Note: Actual official high and low records may vary slightly from our data, if they occured in-between our weather recording intervals... More about our weather records


Canton weather history for previous 24 hours

Time TempWeatherWind HumidityBarometerVisibility
9:51 AM
Tue, Oct 6
62 °FPartly sunny.6 mph80%30.13 "Hg8 mi
8:51 AM58 °FFog.3 mph87%30.12 "Hg6 mi
7:51 AM53 °FFog.No wind89%30.11 "Hg6 mi
6:51 AM54 °FPassing clouds.No wind86%30.09 "Hg8 mi
5:51 AM52 °FPassing clouds.No wind93%30.09 "Hg8 mi
4:51 AM53 °FPassing clouds.No wind89%30.08 "Hg10 mi
3:51 AM54 °FPassing clouds.No wind90%30.09 "Hg10 mi
2:51 AM54 °FClear.3 mph90%30.10 "Hg10 mi
1:51 AM55 °FClear.5 mph87%30.10 "Hg10 mi
12:51 AM56 °FPassing clouds.5 mph87%30.11 "Hg10 mi
11:51 PM
Mon, Oct 5
56 °FPassing clouds.7 mph87%30.12 "Hg10 mi
10:51 PM56 °FPassing clouds.6 mph87%30.12 "Hg10 mi
9:51 PM59 °FPassing clouds.6 mph78%30.12 "Hg10 mi
8:51 PM61 °FPassing clouds.3 mph72%30.12 "Hg10 mi
7:51 PM64 °FPassing clouds.3 mph68%30.11 "Hg10 mi
6:51 PM66 °FScattered clouds.5 mph63%30.11 "Hg10 mi
5:51 PM70 °FScattered clouds.7 mph55%30.10 "Hg10 mi
4:51 PM73 °FPassing clouds.7 mph48%30.10 "Hg10 mi
3:51 PM73 °FPassing clouds.8 mph50%30.10 "Hg10 mi
2:51 PM73 °FPassing clouds.5 mph50%30.11 "Hg10 mi
1:51 PM71 °FPassing clouds.6 mph51%30.14 "Hg10 mi
12:51 PM69 °FPassing clouds.9 mph53%30.16 "Hg10 mi
11:51 AM67 °FPassing clouds.7 mph55%30.17 "Hg10 mi
Weather by CustomWeather, © 2015

See weather overviewHow to use our weather pages